Time,TemperatureF,DewpointF,PressureIn,WindDirection,WindDirectionDegrees,WindSpeedMPH,WindSpeedGustMPH,Humidity,HourlyPrecipIn,Conditions,Clouds,dailyrainin,SoftwareType,DateUTC
2013-03-08 00:00:00,47.4,36.2,30.17,NE,45,0.0,0.0,65,0.00,,,0.00,WUHU216HW,2013-03-08 05:00:00,
2013-03-08 00:02:00,47.4,36.2,30.17,NE,45,0.0,0.0,65,0.00,,,0.00,WUHU216HW,2013-03-08 05:02:00,
2013-03-08 00:07:00,47.4,36.6,30.17,NE,45,0.0,0.0,66,0.00,,,0.00,WUHU216HW,2013-03-08 05:07:00,
2013-03-08 00:12:00,47.6,36.8,30.16,NE,45,0.0,0.0,66,0.00,,,0.00,WUHU216HW,2013-03-08 05:12:00,
2013-03-08 00:17:00,47.8,36.9,30.16,NE,45,0.0,0.0,66,0.00,,,0.00,WUHU216HW,2013-03-08 05:17:00,
2013-03-08 00:22:00,47.8,36.9,30.17,NE,45,0.0,0.0,66,0.00,,,0.00,WUHU216HW,2013-03-08 05:22:00,
2013-03-08 00:27:00,47.8,36.9,30.17,NE,45,0.0,0.0,66,0.00,,,0.00,WUHU216HW,2013-03-08 05:27:00,
2013-03-08 00:32:00,47.8,37.3,30.17,NE,45,0.0,0.0,67,0.00,,,0.00,WUHU216HW,2013-03-08 05:32:00,
2013-03-08 00:37:00,47.8,37.3,30.17,NE,45,0.0,0.0,67,0.00,,,0.00,WUHU216HW,2013-03-08 05:37:00,
2013-03-08 00:42:00,47.8,37.3,30.17,NE,45,0.0,0.0,67,0.00,,,0.00,WUHU216HW,2013-03-08 05:42:00,
2013-03-08 00:47:00,47.8,37.3,30.17,NE,45,0.0,0.0,67,0.00,,,0.00,WUHU216HW,2013-03-08 05:47:00,
2013-03-08 00:52:00,47.6,37.2,30.17,NE,45,0.0,0.0,67,0.00,,,0.00,WUHU216HW,2013-03-08 05:52:00,
2013-03-08 00:57:00,47.6,37.2,30.16,NE,45,0.0,0.0,67,0.00,,,0.00,WUHU216HW,2013-03-08 05:57:00,
2013-03-08 01:02:00,47.6,37.5,30.16,NE,45,0.0,0.0,68,0.00,,,0.00,WUHU216HW,2013-03-08 06:02:00,
2013-03-08 01:07:00,47.6,37.9,30.16,NE,45,0.0,0.0,69,0.00,,,0.00,WUHU216HW,2013-03-08 06:07:00,
2013-03-08 01:12:00,47.4,37.7,30.16,NE,45,0.0,0.0,69,0.00,,,0.00,WUHU216HW,2013-03-08 06:12:00,
2013-03-08 01:17:00,47.4,37.7,30.16,NE,45,0.0,0.0,69,0.00,,,0.00,WUHU216HW,2013-03-08 06:17:00,
2013-03-08 01:22:00,47.6,37.9,30.16,NE,45,0.0,0.0,69,0.00,,,0.00,WUHU216HW,2013-03-08 06:22:00,
2013-03-08 01:27:00,47.6,37.9,30.15,NE,45,0.0,0.0,69,0.00,,,0.00,WUHU216HW,2013-03-08 06:27:00,
2013-03-08 01:32:00,47.6,37.9,30.15,NE,45,0.0,0.0,69,0.00,,,0.00,WUHU216HW,2013-03-08 06:32:00,
2013-03-08 01:37:00,47.4,37.7,30.15,NE,45,0.0,0.0,69,0.00,,,0.00,WUHU216HW,2013-03-08 06:37:00,
2013-03-08 01:42:00,47.4,37.7,30.15,NE,45,0.0,0.0,69,0.00,,,0.00,WUHU216HW,2013-03-08 06:42:00,
2013-03-08 01:47:00,47.3,37.6,30.15,NE,45,0.0,0.0,69,0.00,,,0.00,WUHU216HW,2013-03-08 06:47:00,
2013-03-08 01:52:00,47.1,37.0,30.15,NE,45,0.0,0.0,68,0.00,,,0.00,WUHU216HW,2013-03-08 06:52:00,
2013-03-08 01:57:00,47.1,37.0,30.15,NE,45,0.0,0.0,68,0.00,,,0.00,WUHU216HW,2013-03-08 06:57:00,
2013-03-08 02:02:00,46.9,37.3,30.15,NE,45,0.0,0.0,69,0.00,,,0.00,WUHU216HW,2013-03-08 07:02:00,
2013-03-08 02:07:00,46.7,37.1,30.15,NE,45,0.0,0.0,69,0.00,,,0.00,WUHU216HW,2013-03-08 07:07:00,
2013-03-08 02:12:00,46.7,37.1,30.15,NE,45,0.0,0.0,69,0.00,,,0.00,WUHU216HW,2013-03-08 07:12:00,
2013-03-08 02:17:00,46.7,37.1,30.15,NE,45,0.0,0.0,69,0.00,,,0.00,WUHU216HW,2013-03-08 07:17:00,
2013-03-08 02:22:00,46.5,36.9,30.14,NE,45,0.0,0.0,69,0.00,,,0.00,WUHU216HW,2013-03-08 07:22:00,
2013-03-08 02:27:00,46.5,36.9,30.14,NE,45,0.0,0.0,69,0.00,,,0.00,WUHU216HW,2013-03-08 07:27:00,
2013-03-08 02:32:00,46.5,36.9,30.14,NE,45,0.0,0.0,69,0.00,,,0.00,WUHU216HW,2013-03-08 07:32:00,
2013-03-08 02:37:00,46.2,36.6,30.14,NE,45,0.0,0.0,69,0.00,,,0.00,WUHU216HW,2013-03-08 07:37:00,
2013-03-08 02:42:00,46.2,36.6,30.14,NE,45,0.0,0.0,70,0.00,,,0.00,WUHU216HW,2013-03-08 07:42:00,
2013-03-08 02:47:00,46.2,37.0,30.14,NE,45,0.0,0.0,70,0.00,,,0.00,WUHU216HW,2013-03-08 07:47:00,
2013-03-08 02:52:00,46.0,36.8,30.14,NE,45,0.0,0.0,70,0.00,,,0.00,WUHU216HW,2013-03-08 07:52:00,
2013-03-08 02:57:00,46.0,36.8,30.14,NE,45,0.0,0.0,70,0.00,,,0.00,WUHU216HW,2013-03-08 07:57:00,
2013-03-08 03:02:00,46.0,36.8,30.14,NE,45,0.0,0.0,70,0.00,,,0.00,WUHU216HW,2013-03-08 08:02:00,
2013-03-08 03:07:00,45.6,36.5,30.14,NE,45,0.0,0.0,70,0.00,,,0.00,WUHU216HW,2013-03-08 08:07:00,
2013-03-08 03:12:00,45.6,36.8,30.13,NE,45,0.0,0.0,71,0.00,,,0.00,WUHU216HW,2013-03-08 08:12:00,
2013-03-08 03:17:00,45.5,36.3,30.13,NE,45,0.0,0.0,70,0.00,,,0.00,WUHU216HW,2013-03-08 08:17:00,
2013-03-08 03:22:00,45.3,36.1,30.13,NE,45,0.0,0.0,70,0.00,,,0.00,WUHU216HW,2013-03-08 08:22:00,
2013-03-08 03:27:00,45.3,36.1,30.13,NE,45,0.0,0.0,70,0.00,,,0.00,WUHU216HW,2013-03-08 08:27:00,
2013-03-08 03:32:00,45.1,35.5,30.13,NE,45,0.0,0.0,69,0.00,,,0.00,WUHU216HW,2013-03-08 08:32:00,
2013-03-08 03:37:00,44.9,35.7,30.13,NE,45,0.0,0.0,70,0.00,,,0.00,WUHU216HW,2013-03-08 08:37:00,
2013-03-08 03:42:00,44.9,35.7,30.13,NE,45,0.0,0.0,70,0.00,,,0.00,WUHU216HW,2013-03-08 08:42:00,
2013-03-08 03:47:00,44.7,35.6,30.13,NE,45,0.0,0.0,70,0.00,,,0.00,WUHU216HW,2013-03-08 08:47:00,
2013-03-08 03:52:00,44.7,35.6,30.13,NE,45,0.0,0.0,70,0.00,,,0.00,WUHU216HW,2013-03-08 08:52:00,
2013-03-08 03:57:00,44.6,35.4,30.13,NE,45,0.0,0.0,70,0.00,,,0.00,WUHU216HW,2013-03-08 08:57:00,
2013-03-08 04:02:00,44.6,35.4,30.13,NE,45,0.0,0.0,70,0.00,,,0.00,WUHU216HW,2013-03-08 09:02:00,
2013-03-08 04:07:00,44.4,35.2,30.13,NE,45,0.0,0.0,70,0.00,,,0.00,WUHU216HW,2013-03-08 09:07:00,
2013-03-08 04:12:00,44.4,35.2,30.13,NE,45,0.0,0.0,70,0.00,,,0.00,WUHU216HW,2013-03-08 09:12:00,
2013-03-08 04:17:00,44.4,35.2,30.13,NE,45,0.0,0.0,70,0.00,,,0.00,WUHU216HW,2013-03-08 09:17:00,
2013-03-08 04:22:00,44.4,35.2,30.13,NE,45,0.0,0.0,70,0.00,,,0.00,WUHU216HW,2013-03-08 09:22:00,
2013-03-08 04:27:00,44.4,35.2,30.12,NE,45,0.0,0.0,70,0.00,,,0.00,WUHU216HW,2013-03-08 09:27:00,
2013-03-08 04:32:00,44.2,35.0,30.12,NE,45,0.0,0.0,70,0.00,,,0.00,WUHU216HW,2013-03-08 09:32:00,
2013-03-08 04:37:00,44.2,35.4,30.12,NE,45,0.0,0.0,71,0.00,,,0.00,WUHU216HW,2013-03-08 09:37:00,
2013-03-08 04:42:00,44.2,35.4,30.12,NE,45,0.0,0.0,71,0.00,,,0.00,WUHU216HW,2013-03-08 09:42:00,
2013-03-08 04:47:00,44.0,35.2,30.12,NE,45,0.0,0.0,71,0.00,,,0.00,WUHU216HW,2013-03-08 09:47:00,
2013-03-08 04:52:00,44.0,35.2,30.12,NE,45,0.0,0.0,71,0.00,,,0.00,WUHU216HW,2013-03-08 09:52:00,
2013-03-08 04:57:00,44.0,35.2,30.12,NE,45,0.0,0.0,71,0.00,,,0.00,WUHU216HW,2013-03-08 09:57:00,
2013-03-08 05:02:00,43.8,35.0,30.13,NE,45,0.0,0.0,71,0.00,,,0.00,WUHU216HW,2013-03-08 10:02:00,
2013-03-08 05:07:00,43.8,35.0,30.13,NE,45,0.0,0.0,71,0.00,,,0.00,WUHU216HW,2013-03-08 10:07:00,
2013-03-08 05:12:00,43.7,34.9,30.13,NE,45,0.0,0.0,71,0.00,,,0.00,WUHU216HW,2013-03-08 10:12:00,
2013-03-08 05:17:00,43.5,34.7,30.13,NE,45,0.0,0.0,71,0.00,,,0.00,WUHU216HW,2013-03-08 10:17:00,
2013-03-08 05:22:00,43.5,35.0,30.13,NE,45,0.0,0.0,72,0.00,,,0.00,WUHU216HW,2013-03-08 10:22:00,
2013-03-08 05:27:00,43.5,35.0,30.13,NE,45,0.0,0.0,72,0.00,,,0.00,WUHU216HW,2013-03-08 10:27:00,
2013-03-08 05:32:00,43.3,34.9,30.13,NE,45,0.0,0.0,72,0.00,,,0.00,WUHU216HW,2013-03-08 10:32:00,
2013-03-08 05:37:00,43.1,34.7,30.14,NE,45,0.0,0.0,72,0.00,,,0.00,WUHU216HW,2013-03-08 10:37:00,
2013-03-08 05:42:00,42.9,34.6,30.14,NE,45,0.0,0.0,72,0.00,,,0.00,WUHU216HW,2013-03-08 10:42:00,
2013-03-08 05:47:00,42.9,34.6,30.14,NE,45,0.0,0.0,72,0.00,,,0.00,WUHU216HW,2013-03-08 10:47:00,
2013-03-08 05:52:00,42.6,34.2,30.14,NE,45,0.0,0.0,72,0.00,,,0.00,WUHU216HW,2013-03-08 10:52:00,
2013-03-08 05:57:00,42.6,34.2,30.14,NE,45,0.0,0.0,72,0.00,,,0.00,WUHU216HW,2013-03-08 10:57:00,
2013-03-08 06:02:00,42.4,34.0,30.15,NE,45,0.0,0.0,72,0.00,,,0.00,WUHU216HW,2013-03-08 11:02:00,
2013-03-08 06:07:00,42.0,33.7,30.14,NE,45,0.0,0.0,72,0.00,,,0.00,WUHU216HW,2013-03-08 11:07:00,
2013-03-08 06:12:00,41.9,33.5,30.14,NE,45,0.0,0.0,72,0.00,,,0.00,WUHU216HW,2013-03-08 11:12:00,
2013-03-08 06:17:00,41.7,33.3,30.15,NE,45,0.0,0.0,72,0.00,,,0.00,WUHU216HW,2013-03-08 11:17:00,
2013-03-08 06:22:00,41.5,33.1,30.14,NE,45,0.0,0.0,72,0.00,,,0.00,WUHU216HW,2013-03-08 11:22:00,
2013-03-08 06:27:00,41.5,33.1,30.14,NE,45,0.0,0.0,72,0.00,,,0.00,WUHU216HW,2013-03-08 11:27:00,
2013-03-08 06:32:00,41.5,33.1,30.14,NE,45,0.0,0.0,72,0.00,,,0.00,WUHU216HW,2013-03-08 11:32:00,
2013-03-08 06:37:00,41.5,33.1,30.14,NE,45,0.0,0.0,72,0.00,,,0.00,WUHU216HW,2013-03-08 11:37:00,
2013-03-08 06:42:00,41.5,33.1,30.14,NE,45,0.0,0.0,72,0.00,,,0.00,WUHU216HW,2013-03-08 11:42:00,
2013-03-08 06:47:00,41.5,33.1,30.14,NE,45,0.0,0.0,72,0.00,,,0.00,WUHU216HW,2013-03-08 11:47:00,
2013-03-08 06:52:00,41.3,33.3,30.14,NE,45,0.0,0.0,73,0.00,,,0.00,WUHU216HW,2013-03-08 11:52:00,
2013-03-08 06:57:00,41.3,33.3,30.14,NE,45,0.0,0.0,73,0.00,,,0.00,WUHU216HW,2013-03-08 11:57:00,
2013-03-08 07:02:00,41.3,33.3,30.15,NE,45,0.0,0.0,73,0.00,,,0.00,WUHU216HW,2013-03-08 12:02:00,
2013-03-08 07:07:00,41.1,33.1,30.15,NE,45,0.0,0.0,73,0.00,,,0.00,WUHU216HW,2013-03-08 12:07:00,
2013-03-08 07:12:00,41.1,33.1,30.15,NE,45,0.0,0.0,73,0.00,,,0.00,WUHU216HW,2013-03-08 12:12:00,
2013-03-08 07:17:00,41.1,33.4,30.15,NE,45,0.0,0.0,74,0.00,,,0.00,WUHU216HW,2013-03-08 12:17:00,
2013-03-08 07:22:00,41.5,33.8,30.15,NE,45,0.0,0.0,74,0.00,,,0.00,WUHU216HW,2013-03-08 12:22:00,
2013-03-08 07:27:00,41.5,34.1,30.16,NE,45,0.0,0.0,75,0.00,,,0.00,WUHU216HW,2013-03-08 12:27:00,
2013-03-08 07:32:00,41.9,34.8,30.16,NE,45,0.0,0.0,75,0.00,,,0.00,WUHU216HW,2013-03-08 12:32:00,
2013-03-08 07:37:00,42.4,35.7,30.16,NE,45,0.0,0.0,77,0.00,,,0.00,WUHU216HW,2013-03-08 12:37:00,
2013-03-08 07:42:00,42.6,36.2,30.16,NE,45,0.0,0.0,78,0.00,,,0.00,WUHU216HW,2013-03-08 12:42:00,
2013-03-08 07:47:00,43.1,36.7,30.16,NE,45,0.0,0.0,78,0.00,,,0.00,WUHU216HW,2013-03-08 12:47:00,
2013-03-08 07:52:00,43.7,37.9,30.16,NE,45,0.0,0.0,80,0.00,,,0.00,WUHU216HW,2013-03-08 12:52:00,
2013-03-08 07:57:00,44.2,38.4,30.17,NE,45,0.0,0.0,80,0.00,,,0.00,WUHU216HW,2013-03-08 12:57:00,
2013-03-08 08:02:00,44.7,39.3,30.17,NE,45,0.0,0.8,81,0.00,,,0.00,WUHU216HW,2013-03-08 13:02:00,
2013-03-08 08:07:00,45.1,39.6,30.17,NE,45,0.0,0.8,81,0.00,,,0.00,WUHU216HW,2013-03-08 13:07:00,
2013-03-08 08:12:00,45.6,39.9,30.17,NE,45,0.0,0.0,80,0.00,,,0.00,WUHU216HW,2013-03-08 13:12:00,
2013-03-08 08:17:00,46.2,40.4,30.17,NE,45,0.0,0.0,80,0.00,,,0.00,WUHU216HW,2013-03-08 13:17:00,
2013-03-08 08:22:00,46.7,41.2,30.18,NE,45,0.0,1.7,81,0.00,,,0.00,WUHU216HW,2013-03-08 13:22:00,
2013-03-08 08:27:00,47.4,42.2,30.18,NE,45,2.9,2.9,82,0.00,,,0.00,WUHU216HW,2013-03-08 13:27:00,
2013-03-08 08:32:00,48.2,42.5,30.18,NE,45,0.0,2.9,81,0.00,,,0.00,WUHU216HW,2013-03-08 13:32:00,
2013-03-08 08:37:00,48.7,43.1,30.18,NE,45,0.0,2.0,81,0.00,,,0.00,WUHU216HW,2013-03-08 13:37:00,
2013-03-08 08:42:00,49.4,43.8,30.18,NE,45,2.9,2.9,81,0.00,,,0.00,WUHU216HW,2013-03-08 13:42:00,
2013-03-08 08:47:00,50.0,44.3,30.18,NE,45,0.0,2.9,81,0.00,,,0.00,WUHU216HW,2013-03-08 13:47:00,
2013-03-08 08:52:00,50.3,44.4,30.18,NE,45,0.0,1.5,80,0.00,,,0.00,WUHU216HW,2013-03-08 13:52:00,
2013-03-08 08:57:00,50.9,45.2,30.19,NE,45,1.3,1.5,81,0.00,,,0.00,WUHU216HW,2013-03-08 13:57:00,
2013-03-08 09:02:00,51.4,45.1,30.19,NE,45,1.3,1.7,79,0.00,,,0.00,WUHU216HW,2013-03-08 14:02:00,
2013-03-08 09:07:00,52.1,45.8,30.19,NE,45,1.3,2.0,79,0.00,,,0.00,WUHU216HW,2013-03-08 14:07:00,
2013-03-08 09:12:00,52.5,45.8,30.19,NE,45,0.0,2.9,78,0.00,,,0.00,WUHU216HW,2013-03-08 14:12:00,
2013-03-08 09:17:00,52.8,46.2,30.19,NE,45,0.0,2.9,78,0.00,,,0.00,WUHU216HW,2013-03-08 14:17:00,
2013-03-08 09:22:00,53.4,46.4,30.19,NE,45,0.0,2.6,77,0.00,,,0.00,WUHU216HW,2013-03-08 14:22:00,
2013-03-08 09:27:00,53.9,46.9,30.19,NE,45,4.0,4.0,77,0.00,,,0.00,WUHU216HW,2013-03-08 14:27:00,
2013-03-08 09:32:00,54.5,47.0,30.18,NE,45,1.3,4.0,76,0.00,,,0.00,WUHU216HW,2013-03-08 14:32:00,
2013-03-08 09:37:00,55.0,47.2,30.18,NE,45,0.0,2.9,75,0.00,,,0.00,WUHU216HW,2013-03-08 14:37:00,
2013-03-08 09:42:00,55.5,47.7,30.19,NE,45,0.0,2.9,75,0.00,,,0.00,WUHU216HW,2013-03-08 14:42:00,
2013-03-08 09:47:00,56.1,47.8,30.18,NE,45,0.4,2.9,74,0.00,,,0.00,WUHU216HW,2013-03-08 14:47:00,
2013-03-08 09:52:00,56.6,48.2,30.18,NE,45,1.1,3.3,73,0.00,,,0.00,WUHU216HW,2013-03-08 14:52:00,
2013-03-08 09:57:00,57.2,47.8,30.18,NE,45,0.0,3.3,71,0.00,,,0.00,WUHU216HW,2013-03-08 14:57:00,
2013-03-08 10:02:00,57.7,47.6,30.18,NE,45,0.0,4.0,69,0.00,,,0.00,WUHU216HW,2013-03-08 15:02:00,
2013-03-08 10:07:00,58.1,48.3,30.18,NE,45,0.0,4.0,70,0.00,,,0.00,WUHU216HW,2013-03-08 15:07:00,
2013-03-08 10:12:00,58.6,48.0,30.18,NE,45,0.0,3.1,68,0.00,,,0.00,WUHU216HW,2013-03-08 15:12:00,
2013-03-08 10:17:00,58.8,47.4,30.18,NE,45,0.0,3.1,66,0.00,,,0.00,WUHU216HW,2013-03-08 15:17:00,
2013-03-08 10:22:00,59.0,48.0,30.18,NE,45,0.0,3.8,66,0.00,,,0.00,WUHU216HW,2013-03-08 15:22:00,
2013-03-08 10:27:00,59.5,48.5,30.17,NE,45,0.0,3.8,67,0.00,,,0.00,WUHU216HW,2013-03-08 15:27:00,
2013-03-08 10:32:00,60.0,48.7,30.17,NE,45,0.0,3.3,66,0.00,,,0.00,WUHU216HW,2013-03-08 15:32:00,
2013-03-08 10:37:00,60.8,49.2,30.17,ENE,68,3.3,4.2,66,0.00,,,0.00,WUHU216HW,2013-03-08 15:37:00,
2013-03-08 10:42:00,61.3,49.4,30.17,ENE,68,0.0,4.2,65,0.00,,,0.00,WUHU216HW,2013-03-08 15:42:00,
2013-03-08 10:47:00,61.7,48.9,30.17,ENE,68,0.0,3.5,63,0.00,,,0.00,WUHU216HW,2013-03-08 15:47:00,
2013-03-08 10:52:00,62.2,48.6,30.17,ENE,68,3.8,6.4,61,0.00,,,0.00,WUHU216HW,2013-03-08 15:52:00,
2013-03-08 10:57:00,62.7,48.5,30.17,NE,45,0.0,6.4,60,0.00,,,0.00,WUHU216HW,2013-03-08 15:57:00,
2013-03-08 11:02:00,63.3,49.2,30.17,NE,45,0.0,4.9,60,0.00,,,0.00,WUHU216HW,2013-03-08 16:02:00,
2013-03-08 11:07:00,63.8,48.7,30.17,ENE,68,0.0,2.2,58,0.00,,,0.00,WUHU216HW,2013-03-08 16:07:00,
2013-03-08 11:12:00,64.4,50.1,30.17,ENE,68,1.1,2.9,60,0.00,,,0.00,WUHU216HW,2013-03-08 16:12:00,
2013-03-08 11:17:00,64.9,49.2,30.17,NE,45,4.4,5.1,57,0.00,,,0.00,WUHU216HW,2013-03-08 16:17:00,
2013-03-08 11:22:00,65.1,48.4,30.17,NE,45,0.0,5.1,55,0.00,,,0.00,WUHU216HW,2013-03-08 16:22:00,
2013-03-08 11:27:00,65.3,48.6,30.17,ENE,68,6.4,6.4,55,0.00,,,0.00,WUHU216HW,2013-03-08 16:27:00,
2013-03-08 11:32:00,66.2,49.5,30.16,ENE,68,0.0,6.4,55,0.00,,,0.00,WUHU216HW,2013-03-08 16:32:00,
2013-03-08 11:37:00,66.3,47.7,30.16,ENE,68,0.0,4.4,51,0.00,,,0.00,WUHU216HW,2013-03-08 16:37:00,
2013-03-08 11:42:00,66.5,47.4,30.16,SW,225,0.0,4.6,50,0.00,,,0.00,WUHU216HW,2013-03-08 16:42:00,
2013-03-08 11:47:00,66.7,47.0,30.16,WNW,293,0.0,4.6,49,0.00,,,0.00,WUHU216HW,2013-03-08 16:47:00,
2013-03-08 11:52:00,66.9,47.7,30.16,NW,315,0.0,1.1,50,0.00,,,0.00,WUHU216HW,2013-03-08 16:52:00,
2013-03-08 11:57:00,67.6,49.8,30.15,NE,45,1.7,6.9,53,0.00,,,0.00,WUHU216HW,2013-03-08 16:57:00,
2013-03-08 12:02:00,68.1,48.9,30.15,WNW,293,0.0,6.9,50,0.00,,,0.00,WUHU216HW,2013-03-08 17:02:00,
2013-03-08 12:07:00,68.3,47.8,30.15,SE,135,0.0,1.5,48,0.00,,,0.00,WUHU216HW,2013-03-08 17:07:00,
2013-03-08 12:12:00,68.5,48.6,30.15,NNE,23,0.0,1.5,49,0.00,,,0.00,WUHU216HW,2013-03-08 17:12:00,
2013-03-08 12:17:00,68.7,48.2,30.15,NE,45,0.0,1.7,48,0.00,,,0.00,WUHU216HW,2013-03-08 17:17:00,
2013-03-08 12:22:00,69.2,48.6,30.14,NE,45,2.6,3.5,48,0.00,,,0.00,WUHU216HW,2013-03-08 17:22:00,
2013-03-08 12:27:00,69.9,48.5,30.15,NE,45,0.0,5.1,47,0.00,,,0.00,WUHU216HW,2013-03-08 17:27:00,
2013-03-08 12:32:00,70.3,48.4,30.14,NE,45,1.3,5.1,45,0.00,,,0.00,WUHU216HW,2013-03-08 17:32:00,
2013-03-08 12:37:00,70.3,47.2,30.14,NE,45,0.0,2.4,44,0.00,,,0.00,WUHU216HW,2013-03-08 17:37:00,
2013-03-08 12:42:00,70.5,46.8,30.14,WNW,293,1.1,3.1,43,0.00,,,0.00,WUHU216HW,2013-03-08 17:42:00,
2013-03-08 12:47:00,70.8,48.2,30.14,NNE,23,0.0,3.1,45,0.00,,,0.00,WUHU216HW,2013-03-08 17:47:00,
2013-03-08 12:52:00,71.2,48.0,30.13,WNW,293,0.0,2.9,45,0.00,,,0.00,WUHU216HW,2013-03-08 17:52:00,
2013-03-08 12:57:00,71.2,46.3,30.13,WNW,293,0.0,2.0,41,0.00,,,0.00,WUHU216HW,2013-03-08 17:57:00,
2013-03-08 13:02:00,71.2,46.3,30.13,WNW,293,0.0,2.0,41,0.00,,,0.00,WUHU216HW,2013-03-08 18:02:00,
2013-03-08 13:07:00,71.4,47.0,30.12,NE,45,0.0,0.6,44,0.00,,,0.00,WUHU216HW,2013-03-08 18:07:00,
2013-03-08 13:12:00,71.9,46.9,30.12,NE,45,3.5,3.5,41,0.00,,,0.00,WUHU216HW,2013-03-08 18:12:00,
2013-03-08 13:17:00,72.6,49.9,30.12,ENE,68,0.0,4.6,45,0.00,,,0.00,WUHU216HW,2013-03-08 18:17:00,
2013-03-08 13:22:00,73.2,48.0,30.11,NNW,338,0.0,4.6,41,0.00,,,0.00,WUHU216HW,2013-03-08 18:22:00,
2013-03-08 13:27:00,73.5,47.0,30.11,NNW,338,0.0,1.1,38,0.00,,,0.00,WUHU216HW,2013-03-08 18:27:00,
2013-03-08 13:32:00,73.7,47.2,30.11,NNE,23,0.0,2.6,39,0.00,,,0.00,WUHU216HW,2013-03-08 18:32:00,
2013-03-08 13:37:00,73.9,48.1,30.11,NE,45,0.0,2.6,40,0.00,,,0.00,WUHU216HW,2013-03-08 18:37:00,
2013-03-08 13:42:00,74.1,47.5,30.11,NNE,23,0.0,2.6,39,0.00,,,0.00,WUHU216HW,2013-03-08 18:42:00,
2013-03-08 13:47:00,74.1,48.3,30.10,ENE,68,0.0,3.1,40,0.00,,,0.00,WUHU216HW,2013-03-08 18:47:00,
2013-03-08 13:52:00,74.6,49.2,30.10,SE,135,4.0,5.3,41,0.00,,,0.00,WUHU216HW,2013-03-08 18:52:00,
2013-03-08 13:57:00,75.0,47.6,30.10,NNE,23,0.8,5.3,38,0.00,,,0.00,WUHU216HW,2013-03-08 18:57:00,
2013-03-08 14:02:00,75.3,47.9,30.10,NE,45,0.0,4.0,38,0.00,,,0.00,WUHU216HW,2013-03-08 19:02:00,
2013-03-08 14:07:00,75.7,47.4,30.10,WNW,293,0.0,2.6,37,0.00,,,0.00,WUHU216HW,2013-03-08 19:07:00,
2013-03-08 14:12:00,75.9,49.1,30.10,ENE,68,1.3,4.6,39,0.00,,,0.00,WUHU216HW,2013-03-08 19:12:00,
2013-03-08 14:17:00,76.2,50.2,30.09,ENE,68,0.0,4.6,40,0.00,,,0.00,WUHU216HW,2013-03-08 19:17:00,
2013-03-08 14:22:00,76.6,48.3,30.09,ENE,68,0.0,2.2,37,0.00,,,0.00,WUHU216HW,2013-03-08 19:22:00,
2013-03-08 14:27:00,76.6,48.3,30.09,NE,45,3.3,3.3,37,0.00,,,0.00,WUHU216HW,2013-03-08 19:27:00,
2013-03-08 14:32:00,76.8,49.2,30.09,ENE,68,0.8,6.0,38,0.00,,,0.00,WUHU216HW,2013-03-08 19:32:00,
2013-03-08 14:37:00,76.8,48.4,30.09,NNE,23,0.0,6.0,37,0.00,,,0.00,WUHU216HW,2013-03-08 19:37:00,
2013-03-08 14:42:00,76.8,48.4,30.09,ENE,68,3.3,3.3,37,0.00,,,0.00,WUHU216HW,2013-03-08 19:42:00,
2013-03-08 14:47:00,77.0,48.6,30.08,ENE,68,0.0,3.3,37,0.00,,,0.00,WUHU216HW,2013-03-08 19:47:00,
2013-03-08 14:52:00,77.1,48.9,30.08,NE,45,0.0,0.0,37,0.00,,,0.00,WUHU216HW,2013-03-08 19:52:00,
2013-03-08 14:57:00,77.5,49.1,30.08,ENE,68,2.9,2.9,37,0.00,,,0.00,WUHU216HW,2013-03-08 19:57:00,
2013-03-08 15:02:00,77.7,47.7,30.07,NNE,23,0.0,2.9,35,0.00,,,0.00,WUHU216HW,2013-03-08 20:02:00,
2013-03-08 15:07:00,78.0,46.4,30.08,NNE,23,0.6,4.4,33,0.00,,,0.00,WUHU216HW,2013-03-08 20:07:00,
2013-03-08 15:12:00,78.4,46.7,30.08,NE,45,0.0,4.4,33,0.00,,,0.00,WUHU216HW,2013-03-08 20:12:00,
2013-03-08 15:17:00,78.6,45.3,30.08,NNE,23,0.0,2.4,31,0.00,,,0.00,WUHU216HW,2013-03-08 20:17:00,
2013-03-08 15:22:00,78.9,45.7,30.07,NE,45,3.3,3.3,31,0.00,,,0.00,WUHU216HW,2013-03-08 20:22:00,
2013-03-08 15:27:00,79.3,46.0,30.07,NE,45,0.0,3.3,31,0.00,,,0.00,WUHU216HW,2013-03-08 20:27:00,
2013-03-08 15:32:00,79.5,45.4,30.08,NNW,338,0.0,2.4,30,0.00,,,0.00,WUHU216HW,2013-03-08 20:32:00,
2013-03-08 15:37:00,79.8,46.5,30.08,ENE,68,0.0,5.3,31,0.00,,,0.00,WUHU216HW,2013-03-08 20:37:00,
2013-03-08 15:42:00,80.4,45.1,30.07,NNE,23,5.5,5.5,29,0.00,,,0.00,WUHU216HW,2013-03-08 20:42:00,
2013-03-08 15:47:00,80.7,44.4,30.07,NE,45,0.0,5.5,28,0.00,,,0.00,WUHU216HW,2013-03-08 20:47:00,
2013-03-08 15:52:00,81.1,43.7,30.07,NE,45,8.5,8.5,28,0.00,,,0.00,WUHU216HW,2013-03-08 20:52:00,
2013-03-08 15:57:00,81.3,43.8,30.07,NNE,23,0.0,8.5,27,0.00,,,0.00,WUHU216HW,2013-03-08 20:57:00,
2013-03-08 16:02:00,81.6,44.1,30.07,NNE,23,0.0,0.0,27,0.00,,,0.00,WUHU216HW,2013-03-08 21:02:00,
2013-03-08 16:07:00,82.2,44.5,30.07,NNE,23,3.3,3.3,27,0.00,,,0.00,WUHU216HW,2013-03-08 21:07:00,
2013-03-08 16:12:00,82.7,45.0,30.07,NE,45,2.9,4.9,27,0.00,,,0.00,WUHU216HW,2013-03-08 21:12:00,
2013-03-08 16:17:00,83.1,44.2,30.07,NNE,23,0.0,4.9,26,0.00,,,0.00,WUHU216HW,2013-03-08 21:17:00,
2013-03-08 16:22:00,83.8,44.8,30.07,NNE,23,2.6,3.3,26,0.00,,,0.00,WUHU216HW,2013-03-08 21:22:00,
2013-03-08 16:27:00,84.0,46.1,30.07,NNE,23,1.3,3.3,27,0.00,,,0.00,WUHU216HW,2013-03-08 21:27:00,
2013-03-08 16:32:00,84.7,45.6,30.07,NE,45,0.0,3.1,26,0.00,,,0.00,WUHU216HW,2013-03-08 21:32:00,
2013-03-08 16:37:00,84.9,45.8,30.07,NNE,23,3.8,3.8,26,0.00,,,0.00,WUHU216HW,2013-03-08 21:37:00,
2013-03-08 16:42:00,85.1,44.9,30.07,North,0,0.0,3.8,25,0.00,,,0.00,WUHU216HW,2013-03-08 21:42:00,
2013-03-08 16:47:00,85.1,45.9,30.08,NNE,23,0.0,2.6,26,0.00,,,0.00,WUHU216HW,2013-03-08 21:47:00,
2013-03-08 16:52:00,85.4,46.2,30.08,NNE,23,0.4,3.5,26,0.00,,,0.00,WUHU216HW,2013-03-08 21:52:00,
2013-03-08 16:57:00,85.8,46.5,30.08,NNE,23,0.0,3.5,26,0.00,,,0.00,WUHU216HW,2013-03-08 21:57:00,
2013-03-08 17:02:00,85.8,46.5,30.08,NNE,23,0.0,1.1,26,0.00,,,0.00,WUHU216HW,2013-03-08 22:02:00,
2013-03-08 17:07:00,85.8,46.5,30.09,NNE,23,0.0,1.0,26,0.00,,,0.00,WUHU216HW,2013-03-08 22:07:00,
2013-03-08 17:12:00,85.6,46.4,30.08,NNE,23,0.0,1.0,26,0.00,,,0.00,WUHU216HW,2013-03-08 22:12:00,
2013-03-08 17:17:00,85.6,45.3,30.08,NNE,23,0.0,1.5,25,0.00,,,0.00,WUHU216HW,2013-03-08 22:17:00,
2013-03-08 17:22:00,85.2,45.0,30.09,NNE,23,0.0,2.6,25,0.00,,,0.00,WUHU216HW,2013-03-08 22:22:00,
2013-03-08 17:27:00,85.2,45.0,30.09,NNE,23,0.0,2.6,25,0.00,,,0.00,WUHU216HW,2013-03-08 22:27:00,
2013-03-08 17:32:00,85.2,45.0,30.09,NNE,23,0.0,0.4,25,0.00,,,0.00,WUHU216HW,2013-03-08 22:32:00,
2013-03-08 17:37:00,85.2,45.0,30.09,NNE,23,2.9,2.9,25,0.00,,,0.00,WUHU216HW,2013-03-08 22:37:00,
2013-03-08 17:42:00,84.7,44.6,30.09,NNE,23,0.0,2.9,25,0.00,,,0.00,WUHU216HW,2013-03-08 22:42:00,
2013-03-08 17:47:00,84.0,43.9,30.09,NNE,23,0.0,2.9,25,0.00,,,0.00,WUHU216HW,2013-03-08 22:47:00,
2013-03-08 17:52:00,83.1,44.2,30.09,NNE,23,0.0,0.0,26,0.00,,,0.00,WUHU216HW,2013-03-08 22:52:00,
2013-03-08 17:58:00,82.2,43.5,30.09,NNE,23,0.0,0.0,26,0.00,,,0.00,WUHU216HW,2013-03-08 22:58:00,
2013-03-08 18:03:00,81.5,42.9,30.09,NNE,23,0.0,0.0,26,0.00,,,0.00,WUHU216HW,2013-03-08 23:03:00,
2013-03-08 18:08:00,80.2,42.9,30.09,NNE,23,0.0,0.0,27,0.00,,,0.00,WUHU216HW,2013-03-08 23:08:00,
2013-03-08 18:13:00,79.1,41.9,30.09,NNE,23,0.0,0.0,27,0.00,,,0.00,WUHU216HW,2013-03-08 23:13:00,
2013-03-08 18:18:00,78.0,42.1,30.09,NNE,23,0.0,1.5,28,0.00,,,0.00,WUHU216HW,2013-03-08 23:18:00,
2013-03-08 18:23:00,77.1,41.3,30.09,NNE,23,0.0,1.5,28,0.00,,,0.00,WUHU216HW,2013-03-08 23:23:00,
2013-03-08 18:28:00,76.2,41.6,30.09,NNE,23,0.0,0.0,29,0.00,,,0.00,WUHU216HW,2013-03-08 23:28:00,
2013-03-08 18:33:00,75.5,42.8,30.09,NNE,23,0.0,0.0,31,0.00,,,0.00,WUHU216HW,2013-03-08 23:33:00,
2013-03-08 18:38:00,74.8,42.9,30.09,NNE,23,0.0,0.0,32,0.00,,,0.00,WUHU216HW,2013-03-08 23:38:00,
2013-03-08 18:43:00,74.1,42.2,30.09,NNE,23,0.0,0.0,32,0.00,,,0.00,WUHU216HW,2013-03-08 23:43:00,
2013-03-08 18:48:00,73.2,42.2,30.10,NNE,23,0.0,0.0,33,0.00,,,0.00,WUHU216HW,2013-03-08 23:48:00,
2013-03-08 18:53:00,72.5,42.3,30.10,NNE,23,0.0,0.0,34,0.00,,,0.00,WUHU216HW,2013-03-08 23:53:00,
2013-03-08 18:58:00,71.7,41.7,30.10,NNE,23,0.0,0.0,34,0.00,,,0.00,WUHU216HW,2013-03-08 23:58:00,
2013-03-08 19:03:00,70.8,41.7,30.10,NNE,23,0.0,0.0,35,0.00,,,0.00,WUHU216HW,2013-03-09 00:03:00,
2013-03-08 19:08:00,70.3,41.9,30.10,NNE,23,0.0,0.0,36,0.00,,,0.00,WUHU216HW,2013-03-09 00:08:00,
2013-03-08 19:13:00,69.9,42.3,30.11,NNE,23,0.0,0.0,37,0.00,,,0.00,WUHU216HW,2013-03-09 00:13:00,
2013-03-08 19:18:00,69.4,41.8,30.11,NNE,23,0.0,0.0,37,0.00,,,0.00,WUHU216HW,2013-03-09 00:18:00,
2013-03-08 19:23:00,68.9,42.1,30.11,NNE,23,0.0,0.0,38,0.00,,,0.00,WUHU216HW,2013-03-09 00:23:00,
2013-03-08 19:28:00,68.3,41.6,30.11,NNE,23,0.0,0.0,38,0.00,,,0.00,WUHU216HW,2013-03-09 00:28:00,
2013-03-08 19:33:00,67.8,41.9,30.11,NNE,23,0.0,0.0,39,0.00,,,0.00,WUHU216HW,2013-03-09 00:33:00,
2013-03-08 19:38:00,67.6,41.7,30.11,NNE,23,0.0,0.0,39,0.00,,,0.00,WUHU216HW,2013-03-09 00:38:00,
2013-03-08 19:43:00,67.2,41.4,30.12,NE,45,5.5,5.5,39,0.00,,,0.00,WUHU216HW,2013-03-09 00:43:00,
2013-03-08 19:48:00,66.7,42.8,30.12,NE,45,2.6,5.5,42,0.00,,,0.00,WUHU216HW,2013-03-09 00:48:00,
2013-03-08 19:53:00,66.5,43.7,30.12,NE,45,1.7,4.4,44,0.00,,,0.00,WUHU216HW,2013-03-09 00:53:00,
2013-03-08 19:58:00,66.2,44.1,30.13,NE,45,0.0,3.5,45,0.00,,,0.00,WUHU216HW,2013-03-09 00:58:00,
2013-03-08 20:03:00,66.0,45.1,30.13,NE,45,0.0,2.6,47,0.00,,,0.00,WUHU216HW,2013-03-09 01:03:00,
2013-03-08 20:08:00,65.8,45.5,30.13,NE,45,0.0,2.9,48,0.00,,,0.00,WUHU216HW,2013-03-09 01:08:00,
2013-03-08 20:13:00,65.8,46.1,30.13,NE,45,0.0,4.6,49,0.00,,,0.00,WUHU216HW,2013-03-09 01:13:00,
2013-03-08 20:18:00,65.4,46.4,30.13,NE,45,0.0,4.6,50,0.00,,,0.00,WUHU216HW,2013-03-09 01:18:00,
2013-03-08 20:23:00,65.3,46.7,30.13,NE,45,0.0,2.4,51,0.00,,,0.00,WUHU216HW,2013-03-09 01:23:00,
2013-03-08 20:28:00,65.1,47.0,30.13,NE,45,2.2,2.2,52,0.00,,,0.00,WUHU216HW,2013-03-09 01:28:00,
2013-03-08 20:33:00,64.9,47.3,30.13,NE,45,2.6,2.6,53,0.00,,,0.00,WUHU216HW,2013-03-09 01:33:00,
2013-03-08 20:38:00,64.7,47.8,30.13,NE,45,2.9,2.9,54,0.00,,,0.00,WUHU216HW,2013-03-09 01:38:00,
2013-03-08 20:43:00,64.5,47.9,30.14,NE,45,2.4,2.9,55,0.00,,,0.00,WUHU216HW,2013-03-09 01:43:00,
2013-03-08 20:48:00,64.5,47.9,30.14,NE,45,0.0,4.0,55,0.00,,,0.00,WUHU216HW,2013-03-09 01:48:00,
2013-03-08 20:53:00,64.2,48.0,30.15,NE,45,0.6,4.0,56,0.00,,,0.00,WUHU216HW,2013-03-09 01:53:00,
2013-03-08 20:58:00,64.0,48.3,30.14,NE,45,2.6,3.1,57,0.00,,,0.00,WUHU216HW,2013-03-09 01:58:00,
2013-03-08 21:03:00,63.6,48.0,30.15,NE,45,0.8,2.9,57,0.00,,,0.00,WUHU216HW,2013-03-09 02:03:00,
2013-03-08 21:08:00,63.6,48.0,30.15,NE,45,3.1,4.2,57,0.00,,,0.00,WUHU216HW,2013-03-09 02:08:00,
2013-03-08 21:13:00,63.3,48.2,30.15,NE,45,0.0,4.2,58,0.00,,,0.00,WUHU216HW,2013-03-09 02:13:00,
2013-03-08 21:18:00,63.1,48.0,30.15,NE,45,0.8,3.5,58,0.00,,,0.00,WUHU216HW,2013-03-09 02:18:00,
2013-03-08 21:23:00,62.9,48.3,30.15,NE,45,0.8,2.4,59,0.00,,,0.00,WUHU216HW,2013-03-09 02:23:00,
2013-03-08 21:28:00,62.7,48.2,30.15,NE,45,0.0,1.3,59,0.00,,,0.00,WUHU216HW,2013-03-09 02:28:00,
2013-03-08 21:33:00,62.4,48.3,30.15,NE,45,1.3,1.3,60,0.00,,,0.00,WUHU216HW,2013-03-09 02:33:00,
2013-03-08 21:38:00,62.2,48.2,30.15,NE,45,1.1,1.3,60,0.00,,,0.00,WUHU216HW,2013-03-09 02:38:00,
2013-03-08 21:43:00,62.0,48.0,30.15,NE,45,0.0,1.1,60,0.00,,,0.00,WUHU216HW,2013-03-09 02:43:00,
2013-03-08 21:48:00,61.8,48.3,30.15,NE,45,1.1,1.3,61,0.00,,,0.00,WUHU216HW,2013-03-09 02:48:00,
2013-03-08 21:53:00,61.5,48.0,30.15,NE,45,0.0,1.3,61,0.00,,,0.00,WUHU216HW,2013-03-09 02:53:00,
2013-03-08 21:58:00,61.5,48.0,30.15,NE,45,0.0,0.4,61,0.00,,,0.00,WUHU216HW,2013-03-09 02:58:00,
2013-03-08 22:03:00,61.3,47.8,30.15,NE,45,0.0,0.0,61,0.00,,,0.00,WUHU216HW,2013-03-09 03:03:00,
2013-03-08 22:08:00,61.1,47.6,30.15,NE,45,0.8,0.8,61,0.00,,,0.00,WUHU216HW,2013-03-09 03:08:00,
2013-03-08 22:13:00,60.9,47.9,30.15,NE,45,0.0,0.8,62,0.00,,,0.00,WUHU216HW,2013-03-09 03:13:00,
2013-03-08 22:18:00,60.6,47.5,30.16,NE,45,0.0,0.8,62,0.00,,,0.00,WUHU216HW,2013-03-09 03:18:00,
2013-03-08 22:23:00,60.2,47.0,30.16,NE,45,0.0,0.0,62,0.00,,,0.00,WUHU216HW,2013-03-09 03:23:00,
2013-03-08 22:28:00,59.7,46.2,30.16,NE,45,0.0,0.0,61,0.00,,,0.00,WUHU216HW,2013-03-09 03:28:00,
2013-03-08 22:33:00,59.1,46.1,30.17,NE,45,0.0,0.0,62,0.00,,,0.00,WUHU216HW,2013-03-09 03:33:00,
2013-03-08 22:38:00,58.8,45.7,30.16,NE,45,0.0,0.0,62,0.00,,,0.00,WUHU216HW,2013-03-09 03:38:00,
2013-03-08 22:43:00,58.6,46.0,30.16,NE,45,0.0,0.0,63,0.00,,,0.00,WUHU216HW,2013-03-09 03:43:00,
2013-03-08 22:48:00,58.1,45.5,30.17,NE,45,0.0,0.0,63,0.00,,,0.00,WUHU216HW,2013-03-09 03:48:00,
2013-03-08 22:53:00,57.9,45.3,30.16,NE,45,0.0,0.0,63,0.00,,,0.00,WUHU216HW,2013-03-09 03:53:00,
2013-03-08 22:58:00,57.7,45.1,30.16,NE,45,0.0,0.0,63,0.00,,,0.00,WUHU216HW,2013-03-09 03:58:00,
2013-03-08 23:03:00,57.3,44.8,30.16,NE,45,0.0,0.0,63,0.00,,,0.00,WUHU216HW,2013-03-09 04:03:00,
2013-03-08 23:08:00,56.8,44.5,30.16,NE,45,0.0,0.0,63,0.00,,,0.00,WUHU216HW,2013-03-09 04:08:00,
2013-03-08 23:13:00,56.4,44.8,30.17,NE,45,0.0,0.0,65,0.00,,,0.00,WUHU216HW,2013-03-09 04:13:00,
2013-03-08 23:18:00,56.3,44.2,30.17,NE,45,0.0,0.0,64,0.00,,,0.00,WUHU216HW,2013-03-09 04:18:00,
2013-03-08 23:23:00,56.1,44.0,30.16,NE,45,0.0,0.0,64,0.00,,,0.00,WUHU216HW,2013-03-09 04:23:00,
2013-03-08 23:28:00,55.9,44.2,30.16,NE,45,0.0,0.0,65,0.00,,,0.00,WUHU216HW,2013-03-09 04:28:00,
2013-03-08 23:33:00,55.9,43.8,30.16,NE,45,0.0,0.0,64,0.00,,,0.00,WUHU216HW,2013-03-09 04:33:00,
2013-03-08 23:38:00,55.7,43.7,30.16,NE,45,0.0,0.0,64,0.00,,,0.00,WUHU216HW,2013-03-09 04:38:00,
2013-03-08 23:43:00,55.7,43.7,30.16,NE,45,0.0,0.0,64,0.00,,,0.00,WUHU216HW,2013-03-09 04:43:00,
2013-03-08 23:48:00,55.5,43.5,30.16,NE,45,0.0,0.0,64,0.00,,,0.00,WUHU216HW,2013-03-09 04:48:00,
2013-03-08 23:53:00,55.4,42.9,30.16,NE,45,0.0,0.0,63,0.00,,,0.00,WUHU216HW,2013-03-09 04:53:00,
2013-03-08 23:58:00,55.2,43.1,30.16,NE,45,0.0,0.0,64,0.00,,,0.00,WUHU216HW,2013-03-09 04:58:00,